Simultaneous Nadir Overpasses (SNOs) Predictions

Prediction of SNOs over PacNW region [( 10.00, 139.50) to ( 22.70, 165.60)] between NOAA-19 and NPP Satellites:

Table of predicted SNOs over PacNW region for the next 30.0 days since TLE Epoch: 7/7/2012
Index Date (NOAA-19) Time (NOAA-19) NOAA-19 Lat,Lon Date (NPP) Time (NPP) NPP Lat,Lon Distance(km) Time Diff (sec)
1 07/15/2012 16:11:16 22.60, 144.08 07/15/2012 16:12:37 23.20, 141.42 280.71 81
2 07/16/2012 03:27:45 22.65, 147.55 07/16/2012 03:25:20 22.28, 145.91 173.14 145
3 07/27/2012 15:43:54 22.59, 150.94 07/27/2012 15:47:21 23.30, 147.74 337.55 207
4 07/28/2012 03:00:21 22.65, 154.42 07/28/2012 03:00:03 22.19, 152.23 230.71 18
5 07/28/2012 15:36:42 10.01, 150.61 07/28/2012 15:33:05 6.53, 148.53 449.50 217
